| time (UTC) | temp F | wind direction | speed MPH | gust MPH | rain 1hr in | rain 24hr in | rain mn in | humidity % | barometer mb |
| 20260510151441 | 62 | 225 | 3.0 | 7.0 | 0.00 | 0.00 | 0.00 | 39 | 1022.3 |
| 20260510150941 | 62 | 178 | 4.0 | 7.0 | 0.00 | 0.00 | 0.00 | 39 | 1022.3 |
| 20260510150436 | 62 | 123 | 3.0 | 7.0 | 0.00 | 0.00 | 0.00 | 40 | 1022.3 |
| 20260510145935 | 61 | 133 | 2.0 | 7.0 | 0.00 | 0.00 | 0.00 | 40 | 1022.3 |
| 20260510145435 | 61 | 265 | 3.0 | 7.0 | 0.00 | 0.00 | 0.00 | 41 | 1022.3 |
| 20260510144934 | 61 | 164 | 2.0 | 7.0 | 0.00 | 0.00 | 0.00 | 43 | 1022.2 |
| 20260510144433 | 60 | 137 | 3.0 | 7.0 | 0.00 | 0.00 | 0.00 | 43 | 1022.2 |
| 20260510143933 | 59 | 162 | 2.0 | 6.0 | 0.00 | 0.00 | 0.00 | 44 | 1022.2 |
| 20260510143432 | 59 | 193 | 2.0 | 6.0 | 0.00 | 0.00 | 0.00 | 42 | 1022.2 |
| 20260510142934 | 59 | 173 | 3.0 | 5.0 | 0.00 | 0.00 | 0.00 | 44 | 1022.1 |
| 20260510142432 | 58 | 137 | 1.0 | 4.0 | 0.00 | 0.00 | 0.00 | 46 | 1022.1 |
| 20260510141934 | 58 | 232 | 2.0 | 4.0 | 0.00 | 0.00 | 0.00 | 47 | 1022.0 |
| 20260510141432 | 56 | 126 | 1.0 | 3.0 | 0.00 | 0.00 | 0.00 | 49 | 1021.9 |
| 20260510135931 | 53 | 205 | 0.0 | 2.0 | 0.00 | 0.00 | 0.00 | 60 | 1021.8 |
| 20260510134430 | 50 | 34 | 1.0 | 3.0 | 0.00 | 0.00 | 0.00 | 71 | 1021.8 |
| 20260510133930 | 48 | 325 | 1.0 | 3.0 | 0.00 | 0.00 | 0.00 | 74 | 1021.9 |
| 20260510133429 | 47 | 9 | 1.0 | 3.0 | 0.00 | 0.00 | 0.00 | 76 | 1021.9 |
| 20260510132930 | 45 | 309 | 2.0 | 4.0 | 0.00 | 0.00 | 0.00 | 78 | 1021.8 |
| 20260510132430 | 44 | 336 | 2.0 | 4.0 | 0.00 | 0.00 | 0.00 | 80 | 1021.7 |
| 20260510131928 | 43 | 336 | 2.0 | 3.0 | 0.00 | 0.00 | 0.00 | 82 | 1021.8 |
| 20260510131428 | 42 | 9 | 1.0 | 3.0 | 0.00 | 0.00 | 0.00 | 82 | 1021.8 |
| 20260510130928 | 41 | 265 | 1.0 | 3.0 | 0.00 | 0.00 | 0.00 | 82 | 1021.8 |
| 20260510130428 | 41 | 309 | 1.0 | 3.0 | 0.00 | 0.00 | 0.00 | 83 | 1021.5 |
| 20260510125929 | 40 | 9 | 1.0 | 3.0 | 0.00 | 0.00 | 0.00 | 84 | 1021.5 |
| 20260510125428 | 40 | 341 | 1.0 | 3.0 | 0.00 | 0.00 | 0.00 | 84 | 1021.5 |
| 20260510124927 | 39 | 9 | 1.0 | 3.0 | 0.00 | 0.00 | 0.00 | 85 | 1021.6 |
| 20260510124426 | 39 | 319 | 1.0 | 2.0 | 0.00 | 0.00 | 0.00 | 85 | 1021.6 |
| 20260510123925 | 39 | 325 | 0.0 | 1.0 | 0.00 | 0.00 | 0.00 | 85 | 1021.6 |
| 20260510123426 | 38 | 51 | 0.0 | 1.0 | 0.00 | 0.00 | 0.00 | 85 | 1021.3 |
| 20260510122925 | 38 | 238 | 0.0 | 2.0 | 0.00 | 0.00 | 0.00 | 85 | 1021.3 |
| 20260510122419 | 38 | 9 | 0.0 | 2.0 | 0.00 | 0.00 | 0.00 | 85 | 1021.2 |
| 20260510121422 | 37 | 334 | 1.0 | 2.0 | 0.00 | 0.00 | 0.00 | 84 | 1021.3 |
| 20260510120919 | 37 | 325 | 1.0 | 2.0 | 0.00 | 0.00 | 0.00 | 85 | 1021.2 |
| 20260510120417 | 37 | 17 | 1.0 | 2.0 | 0.00 | 0.00 | 0.00 | 84 | 1021.3 |
| 20260510115917 | 37 | 238 | 0.0 | 1.0 | 0.00 | 0.00 | 0.00 | 84 | 1021.2 |
| 20260510115416 | 37 | 153 | 0.0 | 1.0 | 0.00 | 0.00 | 0.00 | 84 | 1021.2 |
| 20260510114916 | 37 | 265 | 0.0 | 2.0 | 0.00 | 0.00 | 0.00 | 84 | 1021.1 |
| 20260510114412 | 37 | 9 | 1.0 | 2.0 | 0.00 | 0.00 | 0.00 | 84 | 1021.0 |
| 20260510113905 | 37 | 51 | 0.0 | 1.0 | 0.00 | 0.00 | 0.00 | 83 | 1021.2 |
| 20260510113407 | 36 | 265 | 0.0 | 1.0 | 0.00 | 0.00 | 0.00 | 83 | 1021.1 |
| 20260510112406 | 37 | 137 | 0.0 | 1.0 | 0.00 | 0.00 | 0.00 | 83 | 1021.0 |
| 20260510111404 | 37 | 341 | 1.0 | 2.0 | 0.00 | 0.00 | 0.00 | 83 | 1020.9 |
| 20260510110904 | 37 | 309 | 1.0 | 1.0 | 0.00 | 0.00 | 0.00 | 82 | 1021.0 |
| 20260510110403 | 37 | 9 | 0.0 | 1.0 | 0.00 | 0.00 | 0.00 | 82 | 1021.0 |
| 20260510105904 | 37 | 325 | 0.0 | 1.0 | 0.00 | 0.00 | 0.00 | 82 | 1021.0 |
| 20260510104902 | 37 | 108 | 0.0 | 2.0 | 0.00 | 0.00 | 0.00 | 82 | 1020.8 |
| 20260510104352 | 37 | 137 | 1.0 | 2.0 | 0.00 | 0.00 | 0.00 | 81 | 1020.8 |
| 20260510103852 | 37 | 129 | 1.0 | 2.0 | 0.00 | 0.00 | 0.00 | 81 | 1020.8 |
| 20260510102851 | 37 | 34 | 1.0 | 1.0 | 0.00 | 0.00 | 0.00 | 80 | 1020.9 |
| 20260510102347 | 38 | 309 | 0.0 | 1.0 | 0.00 | 0.00 | 0.00 | 80 | 1020.7 |
| 20260510101846 | 38 | 265 | 0.0 | 1.0 | 0.00 | 0.00 | 0.00 | 80 | 1020.6 |
| 20260510101335 | 38 | 178 | 0.0 | 1.0 | 0.00 | 0.00 | 0.00 | 80 | 1020.4 |
| 20260510100836 | 38 | 205 | 0.0 | 1.0 | 0.00 | 0.00 | 0.00 | 80 | 1020.3 |
| 20260510100335 | 38 | 178 | 0.0 | 1.0 | 0.00 | 0.00 | 0.00 | 80 | 1020.4 |
| 20260510095834 | 38 | 93 | 1.0 | 2.0 | 0.00 | 0.00 | 0.00 | 80 | 1020.3 |
| 20260510095334 | 38 | 129 | 1.0 | 2.0 | 0.00 | 0.00 | 0.00 | 80 | 1020.3 |
| 20260510094333 | 38 | 9 | 0.0 | 1.0 | 0.00 | 0.00 | 0.00 | 79 | 1020.0 |
| 20260510093832 | 38 | 51 | 0.0 | 1.0 | 0.00 | 0.00 | 0.00 | 79 | 1019.9 |
| 20260510093334 | 38 | 221 | 1.0 | 1.0 | 0.00 | 0.00 | 0.00 | 79 | 1019.9 |
| 20260510092332 | 39 | 309 | 1.0 | 2.0 | 0.00 | 0.00 | 0.00 | 78 | 1019.7 |
| 20260510091832 | 39 | 334 | 1.0 | 2.0 | 0.00 | 0.00 | 0.00 | 78 | 1019.6 |
| 20260510090831 | 39 | 334 | 1.0 | 2.0 | 0.00 | 0.00 | 0.00 | 77 | 1019.7 |
| 20260510090332 | 40 | 291 | 0.0 | 2.0 | 0.00 | 0.00 | 0.00 | 77 | 1019.4 |
| 20260510085831 | 40 | 9 | 1.0 | 2.0 | 0.00 | 0.00 | 0.00 | 77 | 1019.3 |
| 20260510085330 | 40 | 9 | 0.0 | 1.0 | 0.00 | 0.00 | 0.00 | 77 | 1019.3 |
| 20260510084832 | 40 | 325 | 0.0 | 1.0 | 0.00 | 0.00 | 0.00 | 75 | 1019.3 |
| 20260510084330 | 40 | 319 | 1.0 | 1.0 | 0.00 | 0.00 | 0.00 | 74 | 1019.6 |
| 20260510083830 | 40 | 309 | 0.0 | 1.0 | 0.00 | 0.00 | 0.00 | 74 | 1019.4 |
| 20260510082829 | 40 | 137 | 0.0 | 2.0 | 0.00 | 0.00 | 0.00 | 73 | 1019.4 |
| 20260510082318 | 40 | 238 | 0.0 | 1.0 | 0.00 | 0.00 | 0.00 | 72 | 1019.2 |
| 20260510081818 | 41 | 34 | 0.0 | 1.0 | 0.00 | 0.00 | 0.00 | 72 | 1019.1 |
| 20260510081318 | 41 | 34 | 0.0 | 4.0 | 0.00 | 0.00 | 0.00 | 71 | 1019.2 |
| 20260510080818 | 41 | 119 | 2.0 | 4.0 | 0.00 | 0.00 | 0.00 | 70 | 1019.1 |
| 20260510080318 | 42 | 171 | 1.0 | 2.0 | 0.00 | 0.00 | 0.00 | 69 | 1019.2 |
| 20260510075817 | 42 | 178 | 0.0 | 1.0 | 0.00 | 0.00 | 0.00 | 69 | 1019.1 |
| 20260510075317 | 42 | 325 | 0.0 | 1.0 | 0.00 | 0.00 | 0.00 | 68 | 1019.1 |
| 20260510074816 | 42 | 334 | 0.0 | 1.0 | 0.00 | 0.00 | 0.00 | 69 | 1019.1 |
| 20260510074311 | 42 | 9 | 0.0 | 1.0 | 0.00 | 0.00 | 0.00 | 68 | 1018.9 |
| 20260510073811 | 43 | 162 | 0.0 | 1.0 | 0.00 | 0.00 | 0.00 | 67 | 1018.9 |
| 20260510073312 | 43 | 265 | 0.0 | 2.0 | 0.00 | 0.00 | 0.00 | 67 | 1018.7 |
| 20260510072802 | 43 | 9 | 0.0 | 2.0 | 0.00 | 0.00 | 0.00 | 66 | 1018.7 |
| 20260510072300 | 44 | 9 | 1.0 | 2.0 | 0.00 | 0.00 | 0.00 | 65 | 1018.6 |
| 20260510071259 | 44 | 334 | 0.0 | 1.0 | 0.00 | 0.00 | 0.00 | 65 | 1018.6 |
| 20260510070759 | 45 | 108 | 0.0 | 1.0 | 0.00 | 0.00 | 0.00 | 64 | 1018.7 |
| 20260510070258 | 45 | 334 | 0.0 | 1.0 | 0.00 | 0.00 | 0.00 | 63 | 1018.6 |
| 20260510065743 | 45 | 319 | 1.0 | 2.0 | 0.00 | 0.00 | 0.00 | 62 | 1018.7 |
| 20260510065242 | 46 | 309 | 0.0 | 2.0 | 0.00 | 0.00 | 0.00 | 62 | 1018.8 |
| 20260510064742 | 46 | 162 | 1.0 | 2.0 | 0.00 | 0.00 | 0.00 | 60 | 1018.7 |
| 20260510064242 | 47 | 265 | 0.0 | 1.0 | 0.00 | 0.00 | 0.00 | 59 | 1018.6 |
| 20260510063743 | 47 | 51 | 0.0 | 1.0 | 0.00 | 0.00 | 0.00 | 58 | 1018.6 |
| 20260510063242 | 47 | 298 | 0.0 | 2.0 | 0.00 | 0.00 | 0.00 | 58 | 1018.5 |
| 20260510062743 | 47 | 93 | 1.0 | 2.0 | 0.00 | 0.00 | 0.00 | 58 | 1018.6 |
| 20260510062241 | 47 | 93 | 0.0 | 2.0 | 0.00 | 0.00 | 0.00 | 58 | 1018.7 |
| 20260510061741 | 47 | 22 | 0.0 | 1.0 | 0.00 | 0.00 | 0.00 | 58 | 1018.7 |
| 20260510060735 | 48 | 291 | 0.0 | 1.0 | 0.00 | 0.00 | 0.00 | 57 | 1018.5 |
| 20260510055730 | 49 | 309 | 0.0 | 2.0 | 0.00 | 0.00 | 0.00 | 55 | 1018.0 |
| 20260510055230 | 49 | 9 | 1.0 | 2.0 | 0.00 | 0.00 | 0.00 | 55 | 1017.9 |
| 20260510054730 | 49 | 9 | 0.0 | 3.0 | 0.00 | 0.00 | 0.00 | 55 | 1017.7 |
| 20260510054231 | 49 | 309 | 1.0 | 4.0 | 0.00 | 0.00 | 0.00 | 55 | 1017.7 |
| 20260510053729 | 49 | 9 | 2.0 | 4.0 | 0.00 | 0.00 | 0.00 | 54 | 1017.5 |
| 20260510050727 | 51 | 9 | 3.0 | 5.0 | 0.00 | 0.00 | 0.00 | 54 | 1016.9 |
| 20260510050227 | 51 | 9 | 2.0 | 4.0 | 0.00 | 0.00 | 0.00 | 53 | 1016.9 |
| 20260510045726 | 51 | 19 | 3.0 | 5.0 | 0.00 | 0.00 | 0.00 | 52 | 1016.8 |
| 20260510045227 | 52 | 9 | 2.0 | 5.0 | 0.00 | 0.00 | 0.00 | 53 | 1016.8 |
| 20260510044725 | 52 | 334 | 2.0 | 4.0 | 0.00 | 0.00 | 0.00 | 52 | 1016.7 |
| 20260510044225 | 53 | 341 | 2.0 | 3.0 | 0.00 | 0.00 | 0.00 | 51 | 1016.6 |
| 20260510043726 | 53 | 16 | 2.0 | 4.0 | 0.00 | 0.00 | 0.00 | 52 | 1016.6 |
| 20260510043225 | 53 | 9 | 2.0 | 4.0 | 0.00 | 0.00 | 0.00 | 50 | 1016.5 |
| 20260510042724 | 54 | 24 | 2.0 | 4.0 | 0.00 | 0.00 | 0.00 | 49 | 1016.5 |
| 20260510042224 | 54 | 342 | 2.0 | 4.0 | 0.00 | 0.00 | 0.00 | 48 | 1016.3 |
| 20260510041724 | 54 | 325 | 1.0 | 4.0 | 0.00 | 0.00 | 0.00 | 51 | 1016.2 |
| 20260510041224 | 54 | 309 | 1.0 | 5.0 | 0.00 | 0.00 | 0.00 | 47 | 1015.9 |
| 20260510040723 | 54 | 346 | 2.0 | 5.0 | 0.00 | 0.00 | 0.00 | 49 | 1016.0 |
| 20260510040225 | 54 | 11 | 2.0 | 5.0 | 0.00 | 0.00 | 0.00 | 49 | 1015.9 |
| 20260510035223 | 55 | 341 | 2.0 | 4.0 | 0.00 | 0.00 | 0.00 | 51 | 1015.8 |
| 20260510034723 | 56 | 340 | 2.0 | 5.0 | 0.00 | 0.00 | 0.00 | 51 | 1015.7 |
| 20260510033723 | 56 | 336 | 2.0 | 5.0 | 0.00 | 0.00 | 0.00 | 47 | 1015.5 |
| 20260510032721 | 57 | 31 | 3.0 | 6.0 | 0.00 | 0.00 | 0.00 | 47 | 1015.2 |
| 20260510032221 | 57 | 319 | 3.0 | 5.0 | 0.00 | 0.00 | 0.00 | 46 | 1015.3 |
| 20260510031720 | 58 | 13 | 3.0 | 9.0 | 0.00 | 0.00 | 0.00 | 46 | 1015.1 |
| 20260510030721 | 58 | 344 | 2.0 | 5.0 | 0.00 | 0.00 | 0.00 | 48 | 1014.9 |
| 20260510030221 | 58 | 30 | 2.0 | 5.0 | 0.00 | 0.00 | 0.00 | 47 | 1014.8 |
| 20260510025720 | 58 | 9 | 2.0 | 9.0 | 0.00 | 0.00 | 0.00 | 45 | 1014.7 |
| 20260510025219 | 58 | 337 | 3.0 | 9.0 | 0.00 | 0.00 | 0.00 | 48 | 1014.7 |
| 20260510024719 | 58 | 9 | 4.0 | 9.0 | 0.00 | 0.00 | 0.00 | 45 | 1014.5 |
| 20260510024219 | 59 | 346 | 2.0 | 6.0 | 0.00 | 0.00 | 0.00 | 44 | 1014.3 |
| 20260510023718 | 59 | 338 | 3.0 | 5.0 | 0.00 | 0.00 | 0.00 | 43 | 1014.2 |
| 20260510023218 | 59 | 346 | 3.0 | 5.0 | 0.00 | 0.00 | 0.00 | 43 | 1014.1 |
| 20260510021216 | 61 | 9 | 1.0 | 3.0 | 0.00 | 0.00 | 0.00 | 39 | 1013.6 |
| 20260510020719 | 61 | 19 | 1.0 | 3.0 | 0.00 | 0.00 | 0.00 | 40 | 1013.6 |
| 20260510020216 | 61 | 319 | 2.0 | 4.0 | 0.00 | 0.00 | 0.00 | 40 | 1013.5 |
| 20260510015716 | 62 | 341 | 1.0 | 5.0 | 0.00 | 0.00 | 0.00 | 40 | 1013.4 |
| 20260510015215 | 62 | 344 | 2.0 | 5.0 | 0.00 | 0.00 | 0.00 | 39 | 1013.3 |
| 20260510014215 | 63 | 338 | 2.0 | 5.0 | 0.00 | 0.00 | 0.00 | 39 | 1013.0 |
| 20260510013214 | 64 | 30 | 1.0 | 4.0 | 0.00 | 0.00 | 0.00 | 39 | 1012.7 |
| 20260510012206 | 65 | 9 | 2.0 | 6.0 | 0.00 | 0.00 | 0.00 | 38 | 1012.5 |
| 20260510011706 | 65 | 348 | 4.0 | 7.0 | 0.00 | 0.00 | 0.00 | 36 | 1012.3 |
| 20260510011207 | 66 | 23 | 2.0 | 7.0 | 0.00 | 0.00 | 0.00 | 38 | 1012.2 |
| 20260510010705 | 67 | 40 | 2.0 | 7.0 | 0.00 | 0.00 | 0.00 | 38 | 1012.1 |
| 20260510010206 | 67 | 34 | 4.0 | 8.0 | 0.00 | 0.00 | 0.00 | 37 | 1012.1 |
| 20260510005704 | 67 | 33 | 4.0 | 8.0 | 0.00 | 0.00 | 0.00 | 39 | 1012.0 |
| 20260510005203 | 67 | 329 | 3.0 | 8.0 | 0.00 | 0.00 | 0.00 | 38 | 1011.9 |
| 20260510004704 | 68 | 39 | 3.0 | 10.0 | 0.00 | 0.00 | 0.00 | 38 | 1011.9 |
| 20260510004203 | 68 | 54 | 4.0 | 10.0 | 0.00 | 0.00 | 0.00 | 40 | 1011.8 |
| 20260510003702 | 68 | 38 | 3.0 | 10.0 | 0.00 | 0.00 | 0.00 | 44 | 1011.7 |
| 20260510003202 | 68 | 9 | 5.0 | 10.0 | 0.00 | 0.00 | 0.00 | 43 | 1011.7 |
| 20260510002702 | 68 | 332 | 4.0 | 7.0 | 0.00 | 0.00 | 0.00 | 42 | 1011.6 |
| 20260510002200 | 68 | 16 | 3.0 | 7.0 | 0.00 | 0.00 | 0.00 | 41 | 1011.6 |
| 20260510001700 | 68 | 13 | 4.0 | 8.0 | 0.00 | 0.00 | 0.00 | 42 | 1011.5 |
| 20260510001200 | 68 | 51 | 3.0 | 9.0 | 0.00 | 0.00 | 0.00 | 42 | 1011.6 |
| 20260510000700 | 68 | 11 | 3.0 | 9.0 | 0.00 | 0.00 | 0.00 | 42 | 1011.6 |
| 20260510000200 | 67 | 38 | 4.0 | 9.0 | 0.00 | 0.00 | 0.00 | 46 | 1011.6 |
| 20260509235659 | 67 | 344 | 4.0 | 9.0 | 0.00 | 0.00 | 0.00 | 45 | 1011.5 |
| 20260509235159 | 67 | 342 | 4.0 | 9.0 | 0.00 | 0.00 | 0.00 | 47 | 1011.5 |
| 20260509234659 | 67 | 313 | 4.0 | 9.0 | 0.00 | 0.00 | 0.00 | 46 | 1011.4 |
| 20260509233657 | 68 | 346 | 5.0 | 12.0 | 0.00 | 0.00 | 0.00 | 48 | 1011.5 |
| 20260509233156 | 68 | 344 | 5.0 | 12.0 | 0.00 | 0.00 | 0.00 | 46 | 1011.5 |
| 20260509232656 | 68 | 344 | 5.0 | 10.0 | 0.00 | 0.00 | 0.00 | 47 | 1011.4 |
| 20260509232156 | 68 | 350 | 4.0 | 9.0 | 0.00 | 0.00 | 0.00 | 50 | 1011.4 |
| 20260509231645 | 68 | 23 | 4.0 | 11.0 | 0.00 | 0.00 | 0.00 | 49 | 1011.3 |
| 20260509230645 | 68 | 342 | 5.0 | 10.0 | 0.00 | 0.00 | 0.00 | 48 | 1011.3 |
| 20260509230145 | 68 | 18 | 6.0 | 11.0 | 0.00 | 0.00 | 0.00 | 48 | 1011.3 |
| 20260509223643 | 69 | 9 | 5.0 | 11.0 | 0.00 | 0.00 | 0.00 | 49 | 1011.3 |
| 20260509222642 | 69 | 9 | 5.0 | 11.0 | 0.00 | 0.00 | 0.00 | 48 | 1011.2 |
| 20260509222143 | 69 | 350 | 5.0 | 11.0 | 0.00 | 0.00 | 0.00 | 47 | 1011.2 |
| 20260509221642 | 69 | 325 | 6.0 | 15.0 | 0.00 | 0.00 | 0.00 | 48 | 1011.1 |
| 20260509221143 | 69 | 344 | 5.0 | 15.0 | 0.00 | 0.00 | 0.00 | 50 | 1011.1 |
| 20260509220642 | 69 | 327 | 6.0 | 13.0 | 0.00 | 0.00 | 0.00 | 49 | 1011.1 |
| 20260509220143 | 69 | 9 | 6.0 | 13.0 | 0.00 | 0.00 | 0.00 | 47 | 1011.0 |
| 20260509215643 | 69 | 317 | 6.0 | 13.0 | 0.00 | 0.00 | 0.00 | 49 | 1011.0 |
| 20260509214641 | 69 | 346 | 4.0 | 9.0 | 0.00 | 0.00 | 0.00 | 48 | 1010.8 |
| 20260509214142 | 69 | 336 | 4.0 | 10.0 | 0.00 | 0.00 | 0.00 | 47 | 1010.8 |
| 20260509213641 | 69 | 347 | 5.0 | 11.0 | 0.00 | 0.00 | 0.00 | 47 | 1010.8 |
| 20260509213141 | 69 | 337 | 4.0 | 16.0 | 0.00 | 0.00 | 0.00 | 48 | 1010.8 |
| 20260509212640 | 69 | 9 | 7.0 | 16.0 | 0.00 | 0.00 | 0.00 | 48 | 1010.9 |
| 20260509212140 | 69 | 342 | 7.0 | 18.0 | 0.00 | 0.00 | 0.00 | 48 | 1010.6 |
| 20260509211640 | 69 | 341 | 10.0 | 18.0 | 0.00 | 0.00 | 0.00 | 46 | 1010.6 |
| 20260509211139 | 69 | 339 | 9.0 | 17.0 | 0.00 | 0.00 | 0.00 | 45 | 1010.6 |
| 20260509210639 | 70 | 323 | 10.0 | 16.0 | 0.00 | 0.00 | 0.00 | 45 | 1010.6 |
| 20260509210139 | 71 | 317 | 9.0 | 17.0 | 0.00 | 0.00 | 0.00 | 44 | 1010.5 |
| 20260509205638 | 71 | 339 | 10.0 | 17.0 | 0.00 | 0.00 | 0.00 | 44 | 1010.4 |
| 20260509204638 | 71 | 15 | 11.0 | 20.0 | 0.00 | 0.00 | 0.00 | 44 | 1010.4 |
| 20260509204139 | 71 | 17 | 11.0 | 20.0 | 0.00 | 0.00 | 0.00 | 44 | 1010.4 |
| 20260509203637 | 71 | 29 | 11.0 | 18.0 | 0.00 | 0.00 | 0.00 | 40 | 1010.3 |
| 20260509203140 | 72 | 13 | 10.0 | 19.0 | 0.00 | 0.00 | 0.00 | 40 | 1010.2 |
| 20260509202637 | 72 | 15 | 10.0 | 19.0 | 0.00 | 0.00 | 0.00 | 41 | 1010.2 |
| 20260509202137 | 73 | 335 | 11.0 | 18.0 | 0.00 | 0.00 | 0.00 | 41 | 1009.9 |
| 20260509201637 | 74 | 16 | 10.0 | 18.0 | 0.00 | 0.00 | 0.00 | 40 | 1009.9 |
| 20260509201135 | 75 | 351 | 11.0 | 18.0 | 0.00 | 0.00 | 0.00 | 40 | 1009.7 |
| 20260509200636 | 76 | 314 | 11.0 | 18.0 | 0.00 | 0.00 | 0.00 | 36 | 1009.6 |
| 20260509200136 | 76 | 351 | 8.0 | 16.0 | 0.00 | 0.00 | 0.00 | 37 | 1009.5 |
| 20260509195637 | 77 | 24 | 8.0 | 14.0 | 0.00 | 0.00 | 0.00 | 37 | 1009.3 |
| 20260509194134 | 76 | 306 | 7.0 | 17.0 | 0.00 | 0.00 | 0.00 | 38 | 1009.2 |
| 20260509193634 | 76 | 340 | 6.0 | 14.0 | 0.00 | 0.00 | 0.00 | 36 | 1009.1 |
| 20260509193134 | 76 | 30 | 6.0 | 17.0 | 0.00 | 0.00 | 0.00 | 33 | 1009.0 |
| 20260509192634 | 76 | 305 | 5.0 | 17.0 | 0.00 | 0.00 | 0.00 | 33 | 1008.8 |
| 20260509192133 | 78 | 344 | 6.0 | 19.0 | 0.00 | 0.00 | 0.00 | 30 | 1008.8 |
| 20260509191634 | 78 | 324 | 11.0 | 19.0 | 0.00 | 0.00 | 0.00 | 32 | 1008.7 |
| 20260509191133 | 78 | 344 | 4.0 | 17.0 | 0.00 | 0.00 | 0.00 | 39 | 1008.7 |
| 20260509190633 | 78 | 348 | 9.0 | 17.0 | 0.00 | 0.00 | 0.00 | 33 | 1008.6 |
| 20260509190133 | 80 | 18 | 4.0 | 12.0 | 0.00 | 0.00 | 0.00 | 26 | 1008.6 |
| 20260509185632 | 79 | 41 | 4.0 | 10.0 | 0.00 | 0.00 | 0.00 | 32 | 1008.6 |
| 20260509184631 | 78 | 338 | 3.0 | 10.0 | 0.00 | 0.00 | 0.00 | 33 | 1008.5 |
| 20260509184132 | 78 | 9 | 4.0 | 10.0 | 0.00 | 0.00 | 0.00 | 36 | 1008.5 |
| 20260509183631 | 76 | 277 | 3.0 | 11.0 | 0.00 | 0.00 | 0.00 | 38 | 1008.5 |
| 20260509183131 | 76 | 66 | 4.0 | 11.0 | 0.00 | 0.00 | 0.00 | 32 | 1008.7 |
| 20260509182631 | 76 | 38 | 5.0 | 16.0 | 0.00 | 0.00 | 0.00 | 27 | 1008.7 |
| 20260509182132 | 76 | 33 | 9.0 | 18.0 | 0.00 | 0.00 | 0.00 | 32 | 1008.7 |
| 20260509181631 | 77 | 22 | 7.0 | 18.0 | 0.00 | 0.00 | 0.00 | 34 | 1008.6 |
| 20260509181129 | 78 | 325 | 8.0 | 18.0 | 0.00 | 0.00 | 0.00 | 30 | 1008.4 |
| 20260509180629 | 78 | 15 | 8.0 | 15.0 | 0.00 | 0.00 | 0.00 | 29 | 1008.3 |
| 20260509180129 | 78 | 9 | 4.0 | 13.0 | 0.00 | 0.00 | 0.00 | 33 | 1008.2 |
| 20260509175129 | 76 | 291 | 5.0 | 15.0 | 0.00 | 0.00 | 0.00 | 37 | 1008.3 |
| 20260509174628 | 76 | 15 | 3.0 | 15.0 | 0.00 | 0.00 | 0.00 | 33 | 1008.3 |
| 20260509174127 | 76 | 336 | 4.0 | 14.0 | 0.00 | 0.00 | 0.00 | 32 | 1008.4 |
| 20260509173627 | 76 | 15 | 8.0 | 14.0 | 0.00 | 0.00 | 0.00 | 33 | 1008.5 |
| 20260509173126 | 76 | 336 | 4.0 | 11.0 | 0.00 | 0.00 | 0.00 | 36 | 1008.4 |
| 20260509172626 | 75 | 227 | 3.0 | 8.0 | 0.00 | 0.00 | 0.00 | 38 | 1008.5 |
| 20260509172127 | 74 | 325 | 2.0 | 10.0 | 0.00 | 0.00 | 0.00 | 38 | 1008.6 |
| 20260509171126 | 74 | 20 | 3.0 | 11.0 | 0.00 | 0.00 | 0.00 | 37 | 1008.8 |
| 20260509170625 | 74 | 341 | 5.0 | 11.0 | 0.00 | 0.00 | 0.00 | 36 | 1008.7 |
| 20260509170125 | 74 | 344 | 7.0 | 11.0 | 0.00 | 0.00 | 0.00 | 33 | 1008.7 |
| 20260509165625 | 75 | 339 | 4.0 | 11.0 | 0.00 | 0.00 | 0.00 | 34 | 1008.6 |
| 20260509165126 | 74 | 9 | 3.0 | 11.0 | 0.00 | 0.00 | 0.00 | 37 | 1008.6 |
| 20260509164623 | 74 | 51 | 4.0 | 11.0 | 0.00 | 0.00 | 0.00 | 37 | 1008.6 |
| 20260509163123 | 74 | 15 | 6.0 | 11.0 | 0.00 | 0.00 | 0.00 | 37 | 1008.5 |
| 20260509162622 | 74 | 9 | 2.0 | 11.0 | 0.00 | 0.00 | 0.00 | 36 | 1008.6 |
| 20260509161622 | 74 | 51 | 3.0 | 12.0 | 0.00 | 0.00 | 0.00 | 39 | 1008.4 |
| 20260509161122 | 74 | 347 | 2.0 | 12.0 | 0.00 | 0.00 | 0.00 | 38 | 1008.4 |
| 20260509160621 | 74 | 9 | 4.0 | 11.0 | 0.00 | 0.00 | 0.00 | 37 | 1008.5 |
| 20260509155622 | 73 | 336 | 6.0 | 12.0 | 0.00 | 0.00 | 0.00 | 37 | 1008.6 |
| 20260509155122 | 73 | 286 | 4.0 | 9.0 | 0.00 | 0.00 | 0.00 | 40 | 1008.6 |
| 20260509154622 | 72 | 309 | 2.0 | 14.0 | 0.00 | 0.00 | 0.00 | 40 | 1008.8 |
| 20260509154120 | 72 | 24 | 7.0 | 14.0 | 0.00 | 0.00 | 0.00 | 38 | 1009.0 |
| 20260509153619 | 72 | 279 | 4.0 | 14.0 | 0.00 | 0.00 | 0.00 | 36 | 1009.0 |
| 20260509153119 | 72 | 334 | 5.0 | 14.0 | 0.00 | 0.00 | 0.00 | 39 | 1009.2 |
| 20260509152618 | 71 | 301 | 4.0 | 13.0 | 0.00 | 0.00 | 0.00 | 39 | 1009.2 |
| 20260509152118 | 71 | 317 | 5.0 | 12.0 | 0.00 | 0.00 | 0.00 | 42 | 1009.0 |
| 20260509151618 | 71 | 321 | 4.0 | 11.0 | 0.00 | 0.00 | 0.00 | 42 | 1008.8 |